Year,Month,Day,Hour,Minute,Value (Times are PST for temperature in C)
2016,07,05,00,00,12.70
2016,07,05,00,01,12.70
2016,07,05,00,02,12.70
2016,07,05,00,03,12.70
2016,07,05,00,04,12.70
2016,07,05,00,05,12.70
2016,07,05,00,06,12.70
2016,07,05,00,07,12.70
2016,07,05,00,08,12.70
2016,07,05,00,09,12.70
2016,07,05,00,10,12.70
2016,07,05,00,11,12.70
2016,07,05,00,12,12.70
2016,07,05,00,13,12.70
2016,07,05,00,14,12.60
2016,07,05,00,15,12.60
2016,07,05,00,16,12.60
2016,07,05,00,17,12.60
2016,07,05,00,18,12.60
2016,07,05,00,19,12.60
2016,07,05,00,20,12.60
2016,07,05,00,21,12.60
2016,07,05,00,22,12.70
2016,07,05,00,23,12.70
2016,07,05,00,24,12.60
2016,07,05,00,25,12.60
2016,07,05,00,26,12.60
2016,07,05,00,27,12.60
2016,07,05,00,28,12.60
2016,07,05,00,29,12.60
2016,07,05,00,30,12.60
2016,07,05,00,31,12.60
2016,07,05,00,32,12.60
2016,07,05,00,33,12.60
2016,07,05,00,34,12.70
2016,07,05,00,35,12.60
2016,07,05,00,36,12.60
2016,07,05,00,37,12.60
2016,07,05,00,38,12.60
2016,07,05,00,39,12.60
2016,07,05,00,40,12.60
2016,07,05,00,41,12.60
2016,07,05,00,42,12.50
2016,07,05,00,43,12.50
2016,07,05,00,44,12.50
2016,07,05,00,45,12.50
2016,07,05,00,46,12.40
2016,07,05,00,47,12.40
2016,07,05,00,48,12.40
2016,07,05,00,49,12.40
2016,07,05,00,50,12.40
2016,07,05,00,51,12.40
2016,07,05,00,52,12.40
2016,07,05,00,53,12.40
2016,07,05,00,54,12.40
2016,07,05,00,55,12.40
2016,07,05,00,56,12.40
2016,07,05,00,57,12.40
2016,07,05,00,58,12.40
2016,07,05,00,59,12.50
2016,07,05,01,00,12.50
2016,07,05,01,01,12.50
2016,07,05,01,02,12.50
2016,07,05,01,03,12.50
2016,07,05,01,04,12.50
2016,07,05,01,05,12.50
2016,07,05,01,06,12.50
2016,07,05,01,07,12.50
2016,07,05,01,08,12.50
2016,07,05,01,09,12.40
2016,07,05,01,10,12.40
2016,07,05,01,11,12.40
2016,07,05,01,12,12.40
2016,07,05,01,13,12.40
2016,07,05,01,14,12.30
2016,07,05,01,15,12.30
2016,07,05,01,16,12.30
2016,07,05,01,17,12.30
2016,07,05,01,18,12.30
2016,07,05,01,19,12.30
2016,07,05,01,20,12.30
2016,07,05,01,21,12.30
2016,07,05,01,22,12.40
2016,07,05,01,23,12.40
2016,07,05,01,24,12.40
2016,07,05,01,25,12.40
2016,07,05,01,26,12.50
2016,07,05,01,27,12.50
2016,07,05,01,28,12.50
2016,07,05,01,29,12.50
2016,07,05,01,30,12.50
2016,07,05,01,31,12.50
2016,07,05,01,32,12.50
2016,07,05,01,33,12.50
2016,07,05,01,34,12.50
2016,07,05,01,35,12.50
2016,07,05,01,36,12.60
2016,07,05,01,37,12.60
2016,07,05,01,38,12.60
2016,07,05,01,39,12.60
2016,07,05,01,40,12.60
2016,07,05,01,41,12.60
2016,07,05,01,42,12.50
2016,07,05,01,43,12.50
2016,07,05,01,44,12.50
2016,07,05,01,45,12.60
2016,07,05,01,46,12.60
2016,07,05,01,47,12.60
2016,07,05,01,48,12.60
2016,07,05,01,49,12.60
2016,07,05,01,50,12.60
2016,07,05,01,51,12.60
2016,07,05,01,52,12.60
2016,07,05,01,53,12.60
2016,07,05,01,54,12.60
2016,07,05,01,55,12.60
2016,07,05,01,56,12.60
2016,07,05,01,57,12.60
2016,07,05,01,58,12.50
2016,07,05,01,59,12.50
2016,07,05,02,00,12.50
2016,07,05,02,01,12.50
2016,07,05,02,02,12.60
2016,07,05,02,03,12.60
2016,07,05,02,04,12.60
2016,07,05,02,05,12.60
2016,07,05,02,06,12.60
2016,07,05,02,07,12.60
2016,07,05,02,08,12.60
2016,07,05,02,09,12.60
2016,07,05,02,10,12.60
2016,07,05,02,11,12.60
2016,07,05,02,12,12.60
2016,07,05,02,13,12.70
2016,07,05,02,14,12.70
2016,07,05,02,15,12.70
2016,07,05,02,16,12.70
2016,07,05,02,17,12.70
2016,07,05,02,18,12.70
2016,07,05,02,19,12.70
2016,07,05,02,20,12.70
2016,07,05,02,21,12.70
2016,07,05,02,22,12.70
2016,07,05,02,23,12.70
2016,07,05,02,24,12.70
2016,07,05,02,25,12.70
2016,07,05,02,26,12.70
2016,07,05,02,27,12.70
2016,07,05,02,28,12.70
2016,07,05,02,29,12.70
2016,07,05,02,30,12.70
2016,07,05,02,31,12.70
2016,07,05,02,32,12.70
2016,07,05,02,33,12.70
2016,07,05,02,34,12.70
2016,07,05,02,35,12.70
2016,07,05,02,36,12.70
2016,07,05,02,37,12.70
2016,07,05,02,38,12.70
2016,07,05,02,39,12.70
2016,07,05,02,40,12.70
2016,07,05,02,41,12.70
2016,07,05,02,42,12.70
2016,07,05,02,43,12.70
2016,07,05,02,44,12.70
2016,07,05,02,45,12.70
2016,07,05,02,46,12.70
2016,07,05,02,47,12.60
2016,07,05,02,48,12.60
2016,07,05,02,49,12.60
2016,07,05,02,50,12.60
2016,07,05,02,51,12.50
2016,07,05,02,52,12.50
2016,07,05,02,53,12.50
2016,07,05,02,54,12.40
2016,07,05,02,55,12.40
2016,07,05,02,56,12.40
2016,07,05,02,57,12.30
2016,07,05,02,58,12.30
2016,07,05,02,59,12.30
2016,07,05,03,00,12.30
2016,07,05,03,01,12.30
2016,07,05,03,02,12.30
2016,07,05,03,03,12.30
2016,07,05,03,04,12.20
2016,07,05,03,05,12.20
2016,07,05,03,06,12.20
2016,07,05,03,07,12.20
2016,07,05,03,08,12.20
2016,07,05,03,09,12.20
2016,07,05,03,10,12.10
2016,07,05,03,11,12.10
2016,07,05,03,12,12.10
2016,07,05,03,13,12.00
2016,07,05,03,14,12.00
2016,07,05,03,15,11.90
2016,07,05,03,16,11.90
2016,07,05,03,17,11.80
2016,07,05,03,18,11.80
2016,07,05,03,19,11.80
2016,07,05,03,20,11.80
2016,07,05,03,21,11.80
2016,07,05,03,22,11.80
2016,07,05,03,23,11.70
2016,07,05,03,24,11.70
2016,07,05,03,25,11.70
2016,07,05,03,26,11.70
2016,07,05,03,27,11.70
2016,07,05,03,28,11.60
2016,07,05,03,29,11.60
2016,07,05,03,30,11.60
2016,07,05,03,31,11.50
2016,07,05,03,32,11.50
2016,07,05,03,33,11.40
2016,07,05,03,34,11.40
2016,07,05,03,35,11.30
2016,07,05,03,36,11.30
2016,07,05,03,37,11.30
2016,07,05,03,38,11.20
2016,07,05,03,39,11.20
2016,07,05,03,40,11.20
2016,07,05,03,41,11.20
2016,07,05,03,42,11.20
2016,07,05,03,43,11.20
2016,07,05,03,44,11.20
2016,07,05,03,45,11.30
2016,07,05,03,46,11.30
2016,07,05,03,47,11.30
2016,07,05,03,48,11.30
2016,07,05,03,49,11.30
2016,07,05,03,50,11.30
2016,07,05,03,51,11.30
2016,07,05,03,52,11.30
2016,07,05,03,53,11.30
2016,07,05,03,54,11.30
2016,07,05,03,55,11.30
2016,07,05,03,56,11.30
2016,07,05,03,57,11.30
2016,07,05,03,58,11.30
2016,07,05,03,59,11.30
2016,07,05,04,00,11.30
2016,07,05,04,01,11.30
2016,07,05,04,02,11.30
2016,07,05,04,03,11.30
2016,07,05,04,04,11.30
2016,07,05,04,05,11.30
2016,07,05,04,06,11.30
2016,07,05,04,07,11.30
2016,07,05,04,08,11.20
2016,07,05,04,09,11.20
2016,07,05,04,10,11.20
2016,07,05,04,11,11.20
2016,07,05,04,12,11.20
2016,07,05,04,13,11.20
2016,07,05,04,14,11.20
2016,07,05,04,15,11.20
2016,07,05,04,16,11.20
2016,07,05,04,17,11.20
2016,07,05,04,18,11.20
2016,07,05,04,19,11.20
2016,07,05,04,20,11.20
2016,07,05,04,21,11.20
2016,07,05,04,22,11.20
2016,07,05,04,23,11.20
2016,07,05,04,24,11.20
2016,07,05,04,25,11.20
2016,07,05,04,26,11.20
2016,07,05,04,27,11.10
2016,07,05,04,28,11.10
2016,07,05,04,29,11.10
2016,07,05,04,30,11.10
2016,07,05,04,31,11.10
2016,07,05,04,32,11.10
2016,07,05,04,33,11.10
2016,07,05,04,34,11.00
2016,07,05,04,35,11.00
2016,07,05,04,36,11.00
2016,07,05,04,37,11.00
2016,07,05,04,38,11.00
2016,07,05,04,39,10.90
2016,07,05,04,40,10.90
2016,07,05,04,41,10.90
2016,07,05,04,42,10.90
2016,07,05,04,43,10.90
2016,07,05,04,44,10.90
2016,07,05,04,45,10.90
2016,07,05,04,46,10.90
2016,07,05,04,47,10.90
2016,07,05,04,48,10.90
2016,07,05,04,49,10.90
2016,07,05,04,50,10.90
2016,07,05,04,51,10.90
2016,07,05,04,52,10.90
2016,07,05,04,53,10.80
2016,07,05,04,54,10.80
2016,07,05,04,55,10.80
2016,07,05,04,56,10.80
2016,07,05,04,57,10.80
2016,07,05,04,58,10.80
2016,07,05,04,59,10.70
2016,07,05,05,00,10.70
2016,07,05,05,01,10.70
2016,07,05,05,02,10.60
2016,07,05,05,03,10.60
2016,07,05,05,04,10.60
2016,07,05,05,05,10.50
2016,07,05,05,06,10.50
2016,07,05,05,07,10.50
2016,07,05,05,08,10.40
2016,07,05,05,09,10.40
2016,07,05,05,10,10.40
2016,07,05,05,11,10.40
2016,07,05,05,12,10.30
2016,07,05,05,13,10.30
2016,07,05,05,14,10.30
2016,07,05,05,15,10.30
2016,07,05,05,16,10.30
2016,07,05,05,17,10.30
2016,07,05,05,18,10.20
2016,07,05,05,19,10.20
2016,07,05,05,20,10.20
2016,07,05,05,21,10.20
2016,07,05,05,22,10.20
2016,07,05,05,23,10.20
2016,07,05,05,24,10.20
2016,07,05,05,25,10.20
2016,07,05,05,26,10.10
2016,07,05,05,27,10.10
2016,07,05,05,28,10.10
2016,07,05,05,29,10.10
2016,07,05,05,30,10.10
2016,07,05,05,31,10.10
2016,07,05,05,32,10.10
2016,07,05,05,33,10.10
2016,07,05,05,34,10.10
2016,07,05,05,35,10.10
2016,07,05,05,36,10.10
2016,07,05,05,37,10.20
2016,07,05,05,38,10.10
2016,07,05,05,39,10.10
2016,07,05,05,40,10.10
2016,07,05,05,41,10.10
2016,07,05,05,42,10.10
2016,07,05,05,43,10.10
2016,07,05,05,44,10.20
2016,07,05,05,45,10.20
2016,07,05,05,46,10.20
2016,07,05,05,47,10.20
2016,07,05,05,48,10.20
2016,07,05,05,49,10.20
2016,07,05,05,50,10.20
2016,07,05,05,51,10.20
2016,07,05,05,52,10.20
2016,07,05,05,53,10.30
2016,07,05,05,54,10.30
2016,07,05,05,55,10.30
2016,07,05,05,56,10.30
2016,07,05,05,57,10.30
2016,07,05,05,58,10.30
2016,07,05,05,59,10.30
2016,07,05,06,00,10.40
2016,07,05,06,01,10.40
2016,07,05,06,02,10.40
2016,07,05,06,03,10.50
2016,07,05,06,04,10.50
2016,07,05,06,05,10.50
2016,07,05,06,06,10.60
2016,07,05,06,07,10.60
2016,07,05,06,08,10.60
2016,07,05,06,09,10.60
2016,07,05,06,10,10.60
2016,07,05,06,11,10.70
2016,07,05,06,12,10.70
2016,07,05,06,13,10.70
2016,07,05,06,14,10.70
2016,07,05,06,15,10.70
2016,07,05,06,16,10.80
2016,07,05,06,17,10.80
2016,07,05,06,18,10.80
2016,07,05,06,19,10.90
2016,07,05,06,20,10.90
2016,07,05,06,21,11.00
2016,07,05,06,22,11.00
2016,07,05,06,23,11.10
2016,07,05,06,24,11.10
2016,07,05,06,25,11.10
2016,07,05,06,26,11.20
2016,07,05,06,27,11.20
2016,07,05,06,28,11.20
2016,07,05,06,29,11.30
2016,07,05,06,30,11.30
2016,07,05,06,31,11.30
2016,07,05,06,32,11.30
2016,07,05,06,33,11.40
2016,07,05,06,34,11.40
2016,07,05,06,35,11.40
2016,07,05,06,36,11.50
2016,07,05,06,37,11.50
2016,07,05,06,38,11.50
2016,07,05,06,39,11.60
2016,07,05,06,40,11.60
2016,07,05,06,41,11.70
2016,07,05,06,42,11.70
2016,07,05,06,43,11.70
2016,07,05,06,44,11.80
2016,07,05,06,45,11.80
2016,07,05,06,46,11.90
2016,07,05,06,47,11.90
2016,07,05,06,48,11.90
2016,07,05,06,49,11.90
2016,07,05,06,50,11.90
2016,07,05,06,51,11.90
2016,07,05,06,52,12.00
2016,07,05,06,53,12.00
2016,07,05,06,54,12.00
2016,07,05,06,55,12.00
2016,07,05,06,56,12.00
2016,07,05,06,57,12.00
2016,07,05,06,58,12.00
2016,07,05,06,59,12.10
2016,07,05,07,00,12.10
2016,07,05,07,01,12.10
2016,07,05,07,02,12.10
2016,07,05,07,03,12.20
2016,07,05,07,04,12.20
2016,07,05,07,05,12.20
2016,07,05,07,06,12.20
2016,07,05,07,07,12.20
2016,07,05,07,08,12.20
2016,07,05,07,09,12.20
2016,07,05,07,10,12.30
2016,07,05,07,11,12.30
2016,07,05,07,12,12.30
2016,07,05,07,13,12.30
2016,07,05,07,14,12.30
2016,07,05,07,15,12.30
2016,07,05,07,16,12.30
2016,07,05,07,17,12.30
2016,07,05,07,18,12.40
2016,07,05,07,19,12.40
2016,07,05,07,20,12.40
2016,07,05,07,21,12.40
2016,07,05,07,22,12.40
2016,07,05,07,23,12.40
2016,07,05,07,24,12.40
2016,07,05,07,25,12.50
2016,07,05,07,26,12.50
2016,07,05,07,27,12.50
2016,07,05,07,28,12.50
2016,07,05,07,29,12.60
2016,07,05,07,30,12.60
2016,07,05,07,31,12.60
2016,07,05,07,32,12.70
2016,07,05,07,33,12.70
2016,07,05,07,34,12.70
2016,07,05,07,35,12.70
2016,07,05,07,36,12.70
2016,07,05,07,37,12.80
2016,07,05,07,38,12.80
2016,07,05,07,39,12.80
2016,07,05,07,40,12.80
2016,07,05,07,41,12.80
2016,07,05,07,42,12.80
2016,07,05,07,43,12.80
2016,07,05,07,44,12.90
2016,07,05,07,45,12.90
2016,07,05,07,46,12.90
2016,07,05,07,47,12.90
2016,07,05,07,48,12.90
2016,07,05,07,49,13.00
2016,07,05,07,50,13.00
2016,07,05,07,51,13.00
2016,07,05,07,52,13.00
2016,07,05,07,53,13.10
2016,07,05,07,54,13.10
2016,07,05,07,55,13.10
2016,07,05,07,56,13.10
2016,07,05,07,57,13.10
2016,07,05,07,58,13.10
2016,07,05,07,59,13.10
2016,07,05,08,00,13.10
2016,07,05,08,01,13.10
2016,07,05,08,02,13.20
2016,07,05,08,03,13.20
2016,07,05,08,04,13.20
2016,07,05,08,05,13.20
2016,07,05,08,06,13.20
2016,07,05,08,07,13.20
2016,07,05,08,08,13.20
2016,07,05,08,09,13.20
2016,07,05,08,10,13.20
2016,07,05,08,11,13.20
2016,07,05,08,12,13.20
2016,07,05,08,13,13.20
2016,07,05,08,14,13.20
2016,07,05,08,15,13.20
2016,07,05,08,16,13.20
2016,07,05,08,17,13.20
2016,07,05,08,18,13.20
2016,07,05,08,19,13.20
2016,07,05,08,20,13.20
2016,07,05,08,21,13.20
2016,07,05,08,22,13.20
2016,07,05,08,23,13.20
2016,07,05,08,24,13.20
2016,07,05,08,25,13.20
2016,07,05,08,26,13.20
2016,07,05,08,27,13.20
2016,07,05,08,28,13.20
2016,07,05,08,29,13.20
2016,07,05,08,30,13.20
2016,07,05,08,31,13.20
2016,07,05,08,32,13.20
2016,07,05,08,33,13.20
2016,07,05,08,34,13.30
2016,07,05,08,35,13.30
2016,07,05,08,36,13.30
2016,07,05,08,37,13.30
2016,07,05,08,38,13.30
2016,07,05,08,39,13.30
2016,07,05,08,40,13.30
2016,07,05,08,41,13.30
2016,07,05,08,42,13.30
2016,07,05,08,43,13.30
2016,07,05,08,44,13.30
2016,07,05,08,45,13.30
2016,07,05,08,46,13.40
2016,07,05,08,47,13.40
2016,07,05,08,48,13.40
2016,07,05,08,49,13.40
2016,07,05,08,50,13.40
2016,07,05,08,51,13.40
2016,07,05,08,52,13.40
2016,07,05,08,53,13.50
2016,07,05,08,54,13.50
2016,07,05,08,55,13.50
2016,07,05,08,56,13.60
2016,07,05,08,57,13.60
2016,07,05,08,58,13.60
2016,07,05,08,59,13.70
2016,07,05,09,00,13.70
2016,07,05,09,01,13.70
2016,07,05,09,02,13.70
2016,07,05,09,03,13.80
2016,07,05,09,04,13.80
2016,07,05,09,05,13.80
2016,07,05,09,06,13.80
2016,07,05,09,07,13.80
2016,07,05,09,08,13.80
2016,07,05,09,09,13.90
2016,07,05,09,10,13.90
2016,07,05,09,11,13.90
2016,07,05,09,12,13.90
2016,07,05,09,13,13.90
2016,07,05,09,14,14.00
2016,07,05,09,15,13.90
2016,07,05,09,16,13.90
2016,07,05,09,17,14.00
2016,07,05,09,18,14.00
2016,07,05,09,19,14.00
2016,07,05,09,20,14.00
2016,07,05,09,21,14.10
2016,07,05,09,22,14.10
2016,07,05,09,23,14.10
2016,07,05,09,24,14.10
2016,07,05,09,25,14.10
2016,07,05,09,26,14.10
2016,07,05,09,27,14.10
2016,07,05,09,28,14.10
2016,07,05,09,29,14.00
2016,07,05,09,30,14.00
2016,07,05,09,31,14.00
2016,07,05,09,32,14.00
2016,07,05,09,33,14.00
2016,07,05,09,34,14.00
2016,07,05,09,35,14.00
2016,07,05,09,36,14.00
2016,07,05,09,37,14.00
2016,07,05,09,38,14.00
2016,07,05,09,39,14.00
2016,07,05,09,40,14.00
2016,07,05,09,41,14.00
2016,07,05,09,42,14.00
2016,07,05,09,43,14.00
2016,07,05,09,44,14.10
2016,07,05,09,45,14.10
2016,07,05,09,46,14.10
2016,07,05,09,47,14.10
2016,07,05,09,48,14.10
2016,07,05,09,49,14.10
2016,07,05,09,50,14.10
2016,07,05,09,51,14.10
2016,07,05,09,52,14.10
2016,07,05,09,53,14.10
2016,07,05,09,54,14.10
2016,07,05,09,55,14.10
2016,07,05,09,56,14.10
2016,07,05,09,57,14.10
2016,07,05,09,58,14.10
2016,07,05,09,59,14.20
2016,07,05,10,00,14.20
2016,07,05,10,01,14.20
2016,07,05,10,02,14.20
2016,07,05,10,03,14.20
2016,07,05,10,04,14.20
2016,07,05,10,05,14.30
2016,07,05,10,06,14.30
2016,07,05,10,07,14.30
2016,07,05,10,08,14.30
2016,07,05,10,09,14.40
2016,07,05,10,10,14.40
2016,07,05,10,11,14.40
2016,07,05,10,12,14.50
2016,07,05,10,13,14.50
2016,07,05,10,14,14.50
2016,07,05,10,15,14.60
2016,07,05,10,16,14.60
2016,07,05,10,17,14.60
2016,07,05,10,18,14.60
2016,07,05,10,19,14.60
2016,07,05,10,20,14.60
2016,07,05,10,21,14.60
2016,07,05,10,22,14.70
2016,07,05,10,23,14.70
2016,07,05,10,24,14.70
2016,07,05,10,25,14.70
2016,07,05,10,26,14.70
2016,07,05,10,27,14.60
2016,07,05,10,28,14.60
2016,07,05,10,29,14.60
2016,07,05,10,30,14.60
2016,07,05,10,31,14.60
2016,07,05,10,32,14.60
2016,07,05,10,33,14.60
2016,07,05,10,34,14.60
2016,07,05,10,35,14.60
2016,07,05,10,36,14.60
2016,07,05,10,37,14.60
2016,07,05,10,38,14.60
2016,07,05,10,39,14.60
2016,07,05,10,40,14.60
2016,07,05,10,41,14.60
2016,07,05,10,42,14.60
2016,07,05,10,43,14.60
2016,07,05,10,44,14.60
2016,07,05,10,45,14.70
2016,07,05,10,46,14.70
2016,07,05,10,47,14.80
2016,07,05,10,48,14.80
2016,07,05,10,49,14.80
2016,07,05,10,50,14.80
2016,07,05,10,51,14.80
2016,07,05,10,52,14.80
2016,07,05,10,53,14.80
2016,07,05,10,54,14.80
2016,07,05,10,55,14.80
2016,07,05,10,56,14.80
2016,07,05,10,57,14.80
2016,07,05,10,58,14.80
2016,07,05,10,59,14.80
2016,07,05,11,00,14.80
2016,07,05,11,01,14.80
2016,07,05,11,02,14.80
2016,07,05,11,03,14.80
2016,07,05,11,04,14.90
2016,07,05,11,05,14.90
2016,07,05,11,06,14.90
2016,07,05,11,07,15.00
2016,07,05,11,08,15.00
2016,07,05,11,09,15.10
2016,07,05,11,10,15.10
2016,07,05,11,11,15.10
2016,07,05,11,12,15.10
2016,07,05,11,13,15.10
2016,07,05,11,14,15.10
2016,07,05,11,15,15.20
2016,07,05,11,16,15.20
2016,07,05,11,17,15.20
2016,07,05,11,18,15.20
2016,07,05,11,19,15.30
2016,07,05,11,20,15.30
2016,07,05,11,21,15.30
2016,07,05,11,22,15.30
2016,07,05,11,23,15.20
2016,07,05,11,24,15.20
2016,07,05,11,25,15.20
2016,07,05,11,26,15.20
2016,07,05,11,27,15.20
2016,07,05,11,28,15.20
2016,07,05,11,29,15.30
2016,07,05,11,30,15.30
2016,07,05,11,31,15.30
2016,07,05,11,32,15.30
2016,07,05,11,33,15.30
2016,07,05,11,34,15.30
2016,07,05,11,35,15.40
2016,07,05,11,36,15.40
2016,07,05,11,37,15.40
2016,07,05,11,38,15.40
2016,07,05,11,39,15.40
2016,07,05,11,40,15.40
2016,07,05,11,41,15.40
2016,07,05,11,42,15.40
2016,07,05,11,43,15.40
2016,07,05,11,44,15.40
2016,07,05,11,45,15.50
2016,07,05,11,46,15.50
2016,07,05,11,47,15.60
2016,07,05,11,48,15.60
2016,07,05,11,49,15.60
2016,07,05,11,50,15.60
2016,07,05,11,51,15.60
2016,07,05,11,52,15.60
2016,07,05,11,53,15.60
2016,07,05,11,54,15.60
2016,07,05,11,55,15.60
2016,07,05,11,56,15.70
2016,07,05,11,57,15.70
2016,07,05,11,58,15.70
2016,07,05,11,59,15.70
2016,07,05,12,00,15.80
2016,07,05,12,01,15.70
2016,07,05,12,02,15.70
2016,07,05,12,03,15.80
2016,07,05,12,04,15.80
2016,07,05,12,05,15.80
2016,07,05,12,06,15.80
2016,07,05,12,07,15.80
2016,07,05,12,08,15.80
2016,07,05,12,09,15.80
2016,07,05,12,10,15.80
2016,07,05,12,11,15.80
2016,07,05,12,12,15.80
2016,07,05,12,13,15.80
2016,07,05,12,14,15.90
2016,07,05,12,15,15.90
2016,07,05,12,16,16.00
2016,07,05,12,17,16.00
2016,07,05,12,18,16.10
2016,07,05,12,19,16.10
2016,07,05,12,20,16.10
2016,07,05,12,21,16.10
2016,07,05,12,22,16.20
2016,07,05,12,23,16.20
2016,07,05,12,24,16.20
2016,07,05,12,25,16.20
2016,07,05,12,26,16.20
2016,07,05,12,27,16.20
2016,07,05,12,28,16.20
2016,07,05,12,29,16.20
2016,07,05,12,30,16.30
2016,07,05,12,31,16.40
2016,07,05,12,32,16.40
2016,07,05,12,33,16.50
2016,07,05,12,34,16.50
2016,07,05,12,35,16.50
2016,07,05,12,36,16.50
2016,07,05,12,37,16.50
2016,07,05,12,38,16.50
2016,07,05,12,39,16.50
2016,07,05,12,40,16.60
2016,07,05,12,41,16.60
2016,07,05,12,42,16.60
2016,07,05,12,43,16.70
2016,07,05,12,44,16.70
2016,07,05,12,45,16.80
2016,07,05,12,46,16.80
2016,07,05,12,47,16.90
2016,07,05,12,48,17.00
2016,07,05,12,49,17.00
2016,07,05,12,50,17.10
2016,07,05,12,51,17.20
2016,07,05,12,52,17.30
2016,07,05,12,53,17.30
2016,07,05,12,54,17.20
2016,07,05,12,55,17.20
2016,07,05,12,56,17.10
2016,07,05,12,57,17.10
2016,07,05,12,58,17.00
2016,07,05,12,59,17.00
2016,07,05,13,00,17.00
2016,07,05,13,01,17.00
2016,07,05,13,02,17.10
2016,07,05,13,03,17.10
2016,07,05,13,04,17.10
2016,07,05,13,05,17.10
2016,07,05,13,06,17.20
2016,07,05,13,07,17.30
2016,07,05,13,08,17.30
2016,07,05,13,09,17.40
2016,07,05,13,10,17.40
2016,07,05,13,11,17.40
2016,07,05,13,12,17.40
2016,07,05,13,13,17.50
2016,07,05,13,14,17.50
2016,07,05,13,15,17.60
2016,07,05,13,16,17.70
2016,07,05,13,17,17.70
2016,07,05,13,18,17.80
2016,07,05,13,19,17.80
2016,07,05,13,20,17.90
2016,07,05,13,21,17.90
2016,07,05,13,22,17.90
2016,07,05,13,23,17.90
2016,07,05,13,24,17.90
2016,07,05,13,25,17.90
2016,07,05,13,26,17.90
2016,07,05,13,27,17.90
2016,07,05,13,28,17.90
2016,07,05,13,29,17.80
2016,07,05,13,30,17.80
2016,07,05,13,31,17.80
2016,07,05,13,32,17.80
2016,07,05,13,33,17.80
2016,07,05,13,34,17.80
2016,07,05,13,35,17.80
2016,07,05,13,36,17.90
2016,07,05,13,37,17.90
2016,07,05,13,38,18.00
2016,07,05,13,39,18.10
2016,07,05,13,40,18.20
2016,07,05,13,41,18.30
2016,07,05,13,42,18.30
2016,07,05,13,43,18.30
2016,07,05,13,44,18.30
2016,07,05,13,45,18.40
2016,07,05,13,46,18.40
2016,07,05,13,47,18.40
2016,07,05,13,48,18.40
2016,07,05,13,49,18.40
2016,07,05,13,50,18.40
2016,07,05,13,51,18.40
2016,07,05,13,52,18.50
2016,07,05,13,53,18.50
2016,07,05,13,54,18.50
2016,07,05,13,55,18.50
2016,07,05,13,56,18.50
2016,07,05,13,57,18.60
2016,07,05,13,58,18.60
2016,07,05,13,59,18.50
2016,07,05,14,00,18.50
2016,07,05,14,01,18.40
2016,07,05,14,02,18.40
2016,07,05,14,03,18.30
2016,07,05,14,04,18.20
2016,07,05,14,05,18.20
2016,07,05,14,06,18.10
2016,07,05,14,07,18.10
2016,07,05,14,08,18.10
2016,07,05,14,09,18.10
2016,07,05,14,10,18.00
2016,07,05,14,11,18.00
2016,07,05,14,12,17.90
2016,07,05,14,13,17.90
2016,07,05,14,14,17.90
2016,07,05,14,15,17.90
2016,07,05,14,16,17.90
2016,07,05,14,17,17.90
2016,07,05,14,18,18.00
2016,07,05,14,19,18.10
2016,07,05,14,20,18.20
2016,07,05,14,21,18.30
2016,07,05,14,22,18.40
2016,07,05,14,23,18.50
2016,07,05,14,24,18.60
2016,07,05,14,25,18.60
2016,07,05,14,26,18.70
2016,07,05,14,27,18.60
2016,07,05,14,28,18.60
2016,07,05,14,29,18.60
2016,07,05,14,30,18.60
2016,07,05,14,31,18.70
2016,07,05,14,32,18.80
2016,07,05,14,33,18.80
2016,07,05,14,34,18.80
2016,07,05,14,35,18.80
2016,07,05,14,36,18.80
2016,07,05,14,37,18.80
2016,07,05,14,38,18.70
2016,07,05,14,39,18.70
2016,07,05,14,40,18.70
2016,07,05,14,41,18.70
2016,07,05,14,42,18.60
2016,07,05,14,43,18.60
2016,07,05,14,44,18.60
2016,07,05,14,45,18.60
2016,07,05,14,46,18.70
2016,07,05,14,47,18.80
2016,07,05,14,48,18.80
2016,07,05,14,49,19.00
2016,07,05,14,50,19.10
2016,07,05,14,51,19.20
2016,07,05,14,52,19.30
2016,07,05,14,53,19.40
2016,07,05,14,54,19.40
2016,07,05,14,55,19.50
2016,07,05,14,56,19.50
2016,07,05,14,57,19.60
2016,07,05,14,58,19.50
2016,07,05,14,59,19.40
2016,07,05,15,00,19.30
2016,07,05,15,01,19.30
2016,07,05,15,02,19.30
2016,07,05,15,03,19.30
2016,07,05,15,04,19.20
2016,07,05,15,05,19.20
2016,07,05,15,06,19.20
2016,07,05,15,07,19.20
2016,07,05,15,08,19.20
2016,07,05,15,09,19.20
2016,07,05,15,10,19.20
2016,07,05,15,11,19.20
2016,07,05,15,12,19.20
2016,07,05,15,13,19.20
2016,07,05,15,14,19.20
2016,07,05,15,15,19.20
2016,07,05,15,16,19.20
2016,07,05,15,17,19.20
2016,07,05,15,18,19.20
2016,07,05,15,19,19.20
2016,07,05,15,20,19.30
2016,07,05,15,21,19.40
2016,07,05,15,22,19.50
2016,07,05,15,23,19.70
2016,07,05,15,24,19.80
2016,07,05,15,25,20.00
2016,07,05,15,26,20.20
2016,07,05,15,27,20.30
2016,07,05,15,28,20.30
2016,07,05,15,29,20.40
2016,07,05,15,30,20.40
2016,07,05,15,31,20.40
2016,07,05,15,32,20.40
2016,07,05,15,33,20.40
2016,07,05,15,34,20.40
2016,07,05,15,35,20.40
2016,07,05,15,36,20.50
2016,07,05,15,37,20.50
2016,07,05,15,38,20.60
2016,07,05,15,39,20.70
2016,07,05,15,40,20.70
2016,07,05,15,41,20.70
2016,07,05,15,42,20.60
2016,07,05,15,43,20.50
2016,07,05,15,44,20.50
2016,07,05,15,45,20.40
2016,07,05,15,46,20.30
2016,07,05,15,47,20.30
2016,07,05,15,48,20.30
2016,07,05,15,49,20.20
2016,07,05,15,50,20.20
2016,07,05,15,51,20.20
2016,07,05,15,52,20.30
2016,07,05,15,53,20.30
2016,07,05,15,54,20.40
2016,07,05,15,55,20.40
2016,07,05,15,56,20.50
2016,07,05,15,57,20.60
2016,07,05,15,58,20.50
2016,07,05,15,59,20.50
2016,07,05,16,00,20.40
2016,07,05,16,01,20.40
2016,07,05,16,02,20.30
2016,07,05,16,03,20.30
2016,07,05,16,04,20.30
2016,07,05,16,05,20.20
2016,07,05,16,06,20.20
2016,07,05,16,07,20.20
2016,07,05,16,08,20.20
2016,07,05,16,09,20.20
2016,07,05,16,10,20.20
2016,07,05,16,11,20.20
2016,07,05,16,12,20.30
2016,07,05,16,13,20.30
2016,07,05,16,14,20.40
2016,07,05,16,15,20.40
2016,07,05,16,16,20.50
2016,07,05,16,17,20.60
2016,07,05,16,18,20.70
2016,07,05,16,19,20.90
2016,07,05,16,20,21.10
2016,07,05,16,21,21.20
2016,07,05,16,22,21.20
2016,07,05,16,23,21.20
2016,07,05,16,24,21.20
2016,07,05,16,25,21.10
2016,07,05,16,26,21.00
2016,07,05,16,27,20.90
2016,07,05,16,28,20.80
2016,07,05,16,29,20.70
2016,07,05,16,30,20.70
2016,07,05,16,31,20.60
2016,07,05,16,32,20.60
2016,07,05,16,33,20.50
2016,07,05,16,34,20.40
2016,07,05,16,35,20.40
2016,07,05,16,36,20.30
2016,07,05,16,37,20.20
2016,07,05,16,38,20.20
2016,07,05,16,39,20.10
2016,07,05,16,40,20.10
2016,07,05,16,41,20.00
2016,07,05,16,42,20.00
2016,07,05,16,43,20.00
2016,07,05,16,44,20.10
2016,07,05,16,45,20.20
2016,07,05,16,46,20.20
2016,07,05,16,47,20.30
2016,07,05,16,48,20.30
2016,07,05,16,49,20.40
2016,07,05,16,50,20.50
2016,07,05,16,51,20.60
2016,07,05,16,52,20.70
2016,07,05,16,53,20.70
2016,07,05,16,54,20.70
2016,07,05,16,55,20.70
2016,07,05,16,56,20.60
2016,07,05,16,57,20.40
2016,07,05,16,58,20.30
2016,07,05,16,59,20.20
2016,07,05,17,00,20.10
2016,07,05,17,01,20.10
2016,07,05,17,02,20.10
2016,07,05,17,03,20.10
2016,07,05,17,04,20.10
2016,07,05,17,05,20.10
2016,07,05,17,06,20.10
2016,07,05,17,07,20.10
2016,07,05,17,08,20.10
2016,07,05,17,09,20.10
2016,07,05,17,10,20.10
2016,07,05,17,11,20.10
2016,07,05,17,12,20.10
2016,07,05,17,13,20.10
2016,07,05,17,14,20.10
2016,07,05,17,15,20.10
2016,07,05,17,16,20.10
2016,07,05,17,17,20.10
2016,07,05,17,18,20.00
2016,07,05,17,19,20.00